{"data":{"norad_id":44475,"epoch":"2026-05-25T04:25:13.368864Z","epoch_age_seconds":49286,"freshness":"FRESH","line1":"1 44475U 19049A   26145.18418251 -.00000264  00000+0  00000+0 0  9996","line2":"2 44475   0.0010 306.2904 0000995 109.3514  35.9309  1.00270982 24988","mean_motion":1.00270982,"eccentricity":9.95e-5,"inclination_deg":0.001,"raan_deg":306.2904,"arg_perigee_deg":109.3514,"mean_anomaly_deg":35.9309,"bstar":0,"rev_number":2498,"period_min":1436.1084047227,"perigee_km":35782.624659514,"apogee_km":35791.015485971,"semimajor_km":42164.957072743,"source":"CELESTRAK","updated_at":"2026-05-25T13:38:14.088082Z"}}